Location: Clanezzo
(45.7500°N, 9.6000°E)
Time: 18:13:37
(UTC+00:00)

SPROUT - Pass Details

Date: 09 July 2022
Orbit: 588 x 598 km, 97.9° (Epoch: 19 August)

Event Time Altitude Azimuth Distance (km) Brightness Sun altitude
Exits shadow 23:59:08 55° 135° (SE) 713 ? -21.5°
Maximum altitude 23:59:55 72° 75° (ENE) 626 ? -21.5°
Drops below altitude 10° 00:04:05 10° 351° (N) 1,930 ? -21.3°
Sets 00:06:16 0° 349° (N) 2,838 ? -21.3°
